Weather History for KELP - May, 2013

Change the Weather History Date:

Friday, May 10, 2013

  Actual Average Record
Temperature  
Mean Temperature 67 °F 72 °F  
Max Temperature 79 °F 86 °F 98 °F (1879)
Min Temperature 55 °F 58 °F 42 °F (1988)
Degree Days  
Heating Degree Days 0 0  
Month to date heating degree days 20 6  
Since 1 July heating degree days 2218 2471  
Cooling Degree Days 2 7  
Month to date cooling degree days 56 63  
Year to date cooling degree days 223 155  
Growing Degree Days 17 (Base 50)    
Moisture  
Dew Point 36 °F    
Average Humidity 39    
Maximum Humidity 62    
Minimum Humidity 15    
Precipitation  
Precipitation 0.18 in 0.02 in 0.18 in (1949)
Month to date precipitation 0.18 0.13  
Year to date precipitation 0.89 1.48  
Snow  
Snow 0.00 in - - ()
Month to date snowfall 0.0  
Since 1 July snowfall 3.1  
Snow Depth 0.00 in    
Sea Level Pressure  
Sea Level Pressure 29.94 in    
Wind  
Wind Speed 10 mph (NNE)    
Max Wind Speed 33 mph    
Max Gust Speed 40 mph    
Visibility 10 miles    
Events Rain , Thunderstorm    
T = Trace of Precipitation, MM = Missing Value Source: NWS Daily Summary

Daily Weather History Graph

Daily Weather History Graph

Search for Another Location

Airport or City:

Trip Planner

Search our weather history database for the weather conditions in past years. The results will help you decide how hot, cold, wet, or windy it might be!

Date:

Astronomy

May. 10, 2013 Rise Set
Actual Time 6:11 AM MDT 7:52 PM MDT
Civil Twilight 5:45 AM MDT 8:18 PM MDT
Nautical Twilight 5:13 AM MDT 8:50 PM MDT
Astronomical Twilight 4:40 AM MDT 9:24 PM MDT
Moon 6:38 AM MDT (5/10) 8:42 PM MDT (5/10)
Length of Visible Light 14h 33m
Length of Day
13h 40m
New Moon, 1% of the Moon is Illuminated
May 10
New Moon
May 17
First Quarter
May 24
Full
May 31
Last Quarter
Jun 8
New

Hourly Weather History & Observations

Time (MDT) Temp. Dew Point Humidity Pressure Visibility Wind Dir Wind Speed Gust Speed Precip Events Conditions
12:51 AM 71.1 °F 21.9 °F 16% 29.80 in 10.0 mi Calm Calm - N/A   Overcast
1:51 AM 71.1 °F 23.0 °F 16% 29.79 in 10.0 mi North 5.8 mph - N/A   Mostly Cloudy
2:51 AM 68.0 °F 21.9 °F 17% 29.80 in 10.0 mi NNW 4.6 mph - N/A   Mostly Cloudy
3:51 AM 66.9 °F 23.0 °F 19% 29.80 in 10.0 mi NE 12.7 mph - N/A   Mostly Cloudy
4:51 AM 64.9 °F 30.9 °F 28% 29.84 in 10.0 mi East 5.8 mph - N/A   Overcast
5:51 AM 63.0 °F 37.9 °F 40% 29.87 in 10.0 mi ENE 10.4 mph - N/A   Mostly Cloudy
6:51 AM 64.0 °F 36.0 °F 35% 29.86 in 10.0 mi North 8.1 mph - N/A   Mostly Cloudy
7:51 AM 62.1 °F 37.9 °F 41% 29.91 in 10.0 mi NE 3.5 mph - N/A   Mostly Cloudy
8:51 AM 64.9 °F 37.9 °F 37% 29.92 in 10.0 mi NNE 6.9 mph - N/A   Mostly Cloudy
9:51 AM 70.0 °F 36.0 °F 29% 29.93 in 10.0 mi East 11.5 mph - N/A   Mostly Cloudy
10:51 AM 72.0 °F 36.0 °F 27% 29.92 in 10.0 mi East 10.4 mph - N/A   Mostly Cloudy
11:51 AM 70.0 °F 32.0 °F 25% 29.94 in 10.0 mi ENE 5.8 mph 17.3 mph N/A   Mostly Cloudy
12:51 PM 75.0 °F 32.0 °F 21% 29.89 in 10.0 mi Variable 4.6 mph - N/A   Mostly Cloudy
1:51 PM 75.9 °F 30.9 °F 19% 29.86 in 10.0 mi ENE 6.9 mph - N/A   Mostly Cloudy
2:51 PM 78.1 °F 30.9 °F 18% 29.84 in 10.0 mi Calm Calm - N/A   Mostly Cloudy
3:51 PM 75.9 °F 28.9 °F 18% 29.84 in 10.0 mi Calm Calm - N/A   Mostly Cloudy
4:18 PM 73.4 °F 32.0 °F 22% 30.03 in 10.0 mi NNW 20.7 mph - N/A   Overcast
4:51 PM 68.0 °F 39.9 °F 36% 29.88 in 10.0 mi North 31.1 mph 38.0 mph 0.00 in Rain , Thunderstorm Light Thunderstorms and Rain
5:20 PM 64.4 °F 39.2 °F 40% 30.07 in 10.0 mi NNW 23.0 mph 39.1 mph 0.00 in Thunderstorm Thunderstorm
5:51 PM 66.0 °F 37.9 °F 36% 29.98 in 10.0 mi NW 15.0 mph - 0.00 in   Overcast
6:16 PM 62.6 °F 42.8 °F 48% 30.17 in 10.0 mi Variable 4.6 mph - 0.02 in Rain , Thunderstorm Light Thunderstorms and Rain
6:51 PM 57.0 °F 50.0 °F 77% 30.07 in 7.0 mi ESE 15.0 mph - 0.15 in Rain , Thunderstorm Thunderstorms and Rain
7:22 PM 55.4 °F 48.2 °F 77% 30.14 in 10.0 mi ENE 20.7 mph 26.5 mph 0.03 in Rain Light Rain
7:51 PM 55.9 °F 46.9 °F 72% 29.99 in 10.0 mi ENE 27.6 mph 36.8 mph 0.03 in   Overcast
8:51 PM 57.9 °F 44.1 °F 60% 30.01 in 10.0 mi ENE 12.7 mph - N/A   Overcast
9:51 PM 59.0 °F 45.0 °F 60% 30.02 in 10.0 mi NW 8.1 mph - N/A   Overcast
10:51 PM 59.0 °F 44.1 °F 58% 30.02 in 10.0 mi North 10.4 mph - N/A   Mostly Cloudy
11:51 PM 59.0 °F 44.1 °F 58% 30.03 in 10.0 mi North 13.8 mph - N/A   Mostly Cloudy